• In Uzbekistan
  • List of Countries
  • For 7 days
  • Water Temperature
  • Satellite Maps
  • Weather Map
  • Weather Widgets
  • user-avatar
    Login

    Hourly Weather Brisbane

    Today, 4 December, Sunday

    Time Temperature Precipitation Wind Pressure Humidity
    00:00 +22°C° 0.2 mm 3 mps 760 mmHg 96%
    01:00 +22°C° 0.2 mm 3 mps 760 mmHg 97%
    02:00 +22°C° 0 mm 3 mps 760 mmHg 96%
    03:00 +21°C° 0 mm 2 mps 760 mmHg 96%
    04:00 +22°C° 0 mm 1 mps 760 mmHg 96%
    05:00 +23°C° 0 mm 2 mps 760 mmHg 89%
    06:00 +25°C° 0 mm 2 mps 760 mmHg 82%
    07:00 +26°C° 0 mm 2 mps 760 mmHg 76%
    08:00 +29°C° 0 mm 3 mps 760 mmHg 64%
    09:00 +31°C° 0 mm 3 mps 760 mmHg 53%
    10:00 +34°C° 0 mm 3 mps 760 mmHg 49%
    11:00 +35°C° 0 mm 4 mps 759 mmHg 46%
    12:00 +36°C° 0 mm 4 mps 759 mmHg 42%
    13:00 +39°C° 0 mm 5 mps 758 mmHg 39%
    14:00 +36°C° 0 mm 6 mps 758 mmHg 45%
    15:00 +35°C° 0 mm 7 mps 757 mmHg 51%
    16:00 +33°C° 0 mm 7 mps 757 mmHg 59%
    17:00 +30°C° 0 mm 6 mps 757 mmHg 66%
    18:00 +29°C° 0 mm 6 mps 758 mmHg 74%
    19:00 +27°C° 0 mm 6 mps 758 mmHg 82%
    20:00 +26°C° 0 mm 6 mps 758 mmHg 84%
    21:00 +26°C° 0 mm 5 mps 759 mmHg 86%
    22:00 +25°C° 0 mm 4 mps 759 mmHg 90%
    23:00 +25°C° 0 mm 4 mps 759 mmHg 91%

    Tomorrow, 5 December, Monday

    Time Temperature Precipitation Wind Pressure Humidity
    00:00 +23°C° 0 mm 4 mps 759 mmHg 92%
    01:00 +23°C° 0 mm 4 mps 759 mmHg 93%
    02:00 +23°C° 0 mm 4 mps 759 mmHg 93%
    03:00 +22°C° 0 mm 3 mps 759 mmHg 94%
    04:00 +22°C° 0 mm 3 mps 759 mmHg 94%
    05:00 +23°C° 0 mm 4 mps 760 mmHg 85%
    06:00 +26°C° 0 mm 4 mps 760 mmHg 77%
    07:00 +28°C° 0 mm 5 mps 760 mmHg 69%
    08:00 +30°C° 0 mm 5 mps 760 mmHg 58%
    09:00 +34°C° 0 mm 5 mps 760 mmHg 48%
    10:00 +37°C° 0 mm 5 mps 759 mmHg 37%
    11:00 +39°C° 0 mm 6 mps 759 mmHg 36%
    12:00 +40°C° 0 mm 7 mps 758 mmHg 34%
    13:00 +41°C° 0 mm 7 mps 757 mmHg 32%
    14:00 +40°C° 0 mm 8 mps 757 mmHg 36%
    15:00 +39°C° 0 mm 8 mps 756 mmHg 41%
    16:00 +37°C° 0 mm 8 mps 756 mmHg 45%
    17:00 +34°C° 0.2 mm 8 mps 756 mmHg 51%
    18:00 +32°C° 0.2 mm 8 mps 756 mmHg 58%
    19:00 +29°C° 0.2 mm 8 mps 757 mmHg 65%
    20:00 +28°C° 0.1 mm 8 mps 757 mmHg 68%
    21:00 +27°C° 0.1 mm 7 mps 758 mmHg 71%
    22:00 +26°C° 0.1 mm 7 mps 759 mmHg 74%
    23:00 +26°C° 0.5 mm 6 mps 759 mmHg 79%

    Day after tomorrow, 6 December, Tuesday

    Time Temperature Precipitation Wind Pressure Humidity
    00:00 +24°C° 0.5 mm 6 mps 759 mmHg 84%
    01:00 +23°C° 0.5 mm 5 mps 759 mmHg 89%
    02:00 +23°C° 0.1 mm 5 mps 759 mmHg 90%
    03:00 +22°C° 0.1 mm 5 mps 758 mmHg 91%
    04:00 +22°C° 0.1 mm 5 mps 758 mmHg 92%
    05:00 +23°C° 0 mm 5 mps 759 mmHg 86%
    06:00 +25°C° 0 mm 5 mps 759 mmHg 80%
    07:00 +27°C° 0 mm 5 mps 759 mmHg 74%
    08:00 +30°C° 0 mm 5 mps 759 mmHg 62%
    09:00 +34°C° 0 mm 5 mps 759 mmHg 49%
    10:00 +37°C° 0 mm 5 mps 759 mmHg 36%
    11:00 +40°C° 0 mm 6 mps 758 mmHg 34%
    12:00 +41°C° 0 mm 7 mps 758 mmHg 32%
    13:00 +43°C° 0 mm 7 mps 757 mmHg 31%
    14:00 +40°C° 0 mm 8 mps 756 mmHg 35%
    15:00 +39°C° 0 mm 9 mps 756 mmHg 39%
    16:00 +37°C° 0 mm 9 mps 755 mmHg 44%
    17:00 +35°C° 0 mm 9 mps 755 mmHg 49%
    18:00 +33°C° 0 mm 9 mps 755 mmHg 53%
    19:00 +32°C° 0 mm 9 mps 756 mmHg 58%
    20:00 +29°C° 0.2 mm 8 mps 756 mmHg 64%
    21:00 +28°C° 0.2 mm 7 mps 757 mmHg 69%
    22:00 +26°C° 0.2 mm 6 mps 757 mmHg 74%
    23:00 +26°C° 0.2 mm 6 mps 757 mmHg 75%

    7 December, Wednesday

    Time Temperature Precipitation Wind Pressure Humidity
    00:00 +26°C° 0.2 mm 6 mps 757 mmHg 76%
    01:00 +24°C° 0.2 mm 6 mps 757 mmHg 76%
    02:00 +25°C° 0.7 mm 5 mps 757 mmHg 78%
    03:00 +23°C° 0.7 mm 4 mps 757 mmHg 79%
    04:00 +24°C° 0.7 mm 3 mps 757 mmHg 81%
    05:00 +25°C° 0.2 mm 4 mps 758 mmHg 76%
    06:00 +27°C° 0.2 mm 4 mps 758 mmHg 71%
    07:00 +28°C° 0.2 mm 4 mps 759 mmHg 66%
    08:00 +32°C° 0.1 mm 4 mps 759 mmHg 57%
    09:00 +35°C° 0.1 mm 3 mps 759 mmHg 48%
    10:00 +38°C° 0.1 mm 3 mps 759 mmHg 38%
    11:00 +38°C° 0 mm 3 mps 758 mmHg 37%
    12:00 +40°C° 0 mm 4 mps 758 mmHg 37%
    13:00 +40°C° 0 mm 5 mps 757 mmHg 36%
    14:00 +37°C° 0.2 mm 5 mps 757 mmHg 44%
    15:00 +35°C° 0.2 mm 5 mps 757 mmHg 52%
    16:00 +33°C° 0.2 mm 6 mps 756 mmHg 60%
    17:00 +30°C° 0.9 mm 5 mps 757 mmHg 70%
    18:00 +28°C° 0.9 mm 4 mps 758 mmHg 80%
    19:00 +26°C° 0.9 mm 4 mps 759 mmHg 90%
    20:00 +26°C° 0.5 mm 4 mps 759 mmHg 91%
    21:00 +25°C° 0.5 mm 4 mps 760 mmHg 91%
    22:00 +25°C° 0.5 mm 4 mps 760 mmHg 92%
    23:00 +25°C° 0.1 mm 3 mps 760 mmHg 93%

    8 December, Thursday

    Time Temperature Precipitation Wind Pressure Humidity
    00:00 +25°C° 0.1 mm 3 mps 759 mmHg 94%
    01:00 +25°C° 0.1 mm 3 mps 759 mmHg 94%
    02:00 +25°C° 0.3 mm 2 mps 759 mmHg 95%
    03:00 +24°C° 0.3 mm 2 mps 759 mmHg 95%
    04:00 +24°C° 0.3 mm 2 mps 759 mmHg 95%
    05:00 +25°C° 0.1 mm 2 mps 759 mmHg 93%
    06:00 +25°C° 0.1 mm 2 mps 759 mmHg 91%
    07:00 +26°C° 0.1 mm 2 mps 759 mmHg 89%
    08:00 +27°C° 0 mm 2 mps 759 mmHg 83%
    09:00 +28°C° 0 mm 2 mps 759 mmHg 77%
    10:00 +30°C° 0 mm 2 mps 759 mmHg 71%
    11:00 +31°C° 0 mm 3 mps 758 mmHg 64%
    12:00 +34°C° 0 mm 4 mps 757 mmHg 57%
    13:00 +35°C° 0 mm 4 mps 756 mmHg 50%
    14:00 +35°C° 0.4 mm 5 mps 756 mmHg 53%
    15:00 +34°C° 0.4 mm 5 mps 755 mmHg 56%
    16:00 +33°C° 0.4 mm 6 mps 754 mmHg 58%
    17:00 +30°C° 0.1 mm 6 mps 755 mmHg 65%
    18:00 +29°C° 0.1 mm 6 mps 755 mmHg 71%
    19:00 +27°C° 0.1 mm 6 mps 755 mmHg 78%
    20:00 +27°C° 0.4 mm 6 mps 756 mmHg 81%
    21:00 +26°C° 0.4 mm 5 mps 756 mmHg 85%
    22:00 +26°C° 0.4 mm 5 mps 756 mmHg 88%
    23:00 +25°C° 0.4 mm 5 mps 756 mmHg 88%

    9 December, Friday

    Time Temperature Precipitation Wind Pressure Humidity
    00:00 +25°C° 0.4 mm 5 mps 756 mmHg 89%
    01:00 +23°C° 0.4 mm 5 mps 755 mmHg 90%
    02:00 +23°C° 0.4 mm 5 mps 755 mmHg 90%
    03:00 +23°C° 0.4 mm 4 mps 755 mmHg 90%
    04:00 +23°C° 0.4 mm 4 mps 755 mmHg 91%
    05:00 +25°C° 0.1 mm 4 mps 756 mmHg 87%
    06:00 +26°C° 0.1 mm 4 mps 756 mmHg 83%
    07:00 +27°C° 0.1 mm 5 mps 757 mmHg 79%
    08:00 +30°C° 0 mm 4 mps 757 mmHg 66%
    09:00 +33°C° 0 mm 4 mps 757 mmHg 54%
    10:00 +36°C° 0 mm 4 mps 757 mmHg 41%
    11:00 +35°C° 0.3 mm 4 mps 756 mmHg 44%
    12:00 +34°C° 0.3 mm 5 mps 756 mmHg 46%
    13:00 +34°C° 0.3 mm 5 mps 756 mmHg 49%
    14:00 +33°C° 0.4 mm 4 mps 756 mmHg 51%
    15:00 +31°C° 0.4 mm 3 mps 756 mmHg 52%
    16:00 +31°C° 0.4 mm 3 mps 756 mmHg 53%
    17:00 +29°C° 0.3 mm 3 mps 757 mmHg 62%
    18:00 +27°C° 0.3 mm 4 mps 758 mmHg 71%
    19:00 +26°C° 0.3 mm 5 mps 759 mmHg 79%
    20:00 +25°C° 0.2 mm 5 mps 759 mmHg 82%
    21:00 +24°C° 0.2 mm 6 mps 760 mmHg 85%
    22:00 +23°C° 0.2 mm 7 mps 760 mmHg 88%
    23:00 +23°C° 0.5 mm 7 mps 760 mmHg 88%
    Show more